MAI114 GQNO-GMMN

Flight info

Callsign MAI114
Flight time N/A
Altitude 35000
Route GUPEL/N0462F340 DCT LAY DCT SOLNA UA600 ADM UG850 MAK UB11 MABAP UR722 FOBAC
Aircraft B738/M-SDE2E3FGHIRWXY/LB1

Departure

Time 2026-04-21 08:36
Airport Nouakchott–Oumtounsy International Airport (GQNO)

Arrival

Time N/A
Airport Mohammed V International Airport (GMMN)
Time Latitude Longitude Altitude Speed Heading
2026-04-21 08:17 18.31101 -15.96738 13 ft 0 kts 56°
2026-04-21 08:28 18.31099 -15.96734 13 ft 1 kts 106°
2026-04-21 08:29 18.31085 -15.96736 15 ft 4 kts 191°
2026-04-21 08:29 18.31055 -15.96748 13 ft 5 kts 223°
2026-04-21 08:29 18.31050 -15.96783 13 ft 5 kts 271°
2026-04-21 08:29 18.31035 -15.96813 13 ft 5 kts 207°
2026-04-21 08:30 18.30960 -15.96777 13 ft 21 kts 131°
2026-04-21 08:30 18.30859 -15.96660 13 ft 22 kts 149°
2026-04-21 08:30 18.30732 -15.96580 15 ft 21 kts 149°
2026-04-21 08:30 18.30607 -15.96503 13 ft 20 kts 149°
2026-04-21 08:31 18.30487 -15.96429 13 ft 20 kts 149°
2026-04-21 08:31 18.30370 -15.96357 14 ft 19 kts 149°
2026-04-21 08:31 18.30256 -15.96288 14 ft 18 kts 150°
2026-04-21 08:31 18.30146 -15.96221 15 ft 18 kts 150°
2026-04-21 08:32 18.30040 -15.96157 16 ft 17 kts 149°
2026-04-21 08:32 18.29939 -15.96094 14 ft 17 kts 149°
2026-04-21 08:32 18.29839 -15.96032 14 ft 19 kts 149°
2026-04-21 08:32 18.29729 -15.95965 14 ft 18 kts 150°
2026-04-21 08:33 18.29621 -15.95901 16 ft 17 kts 150°
2026-04-21 08:33 18.29518 -15.95840 14 ft 17 kts 150°
2026-04-21 08:33 18.29419 -15.95781 16 ft 16 kts 150°
2026-04-21 08:33 18.29321 -15.95729 14 ft 15 kts 153°
2026-04-21 08:34 18.29242 -15.95683 14 ft 6 kts 151°
2026-04-21 08:34 18.29193 -15.95680 14 ft 9 kts 204°
2026-04-21 08:34 18.29154 -15.95739 15 ft 10 kts 237°
2026-04-21 08:34 18.29116 -15.95799 14 ft 10 kts 238°
2026-04-21 08:35 18.29148 -15.95853 14 ft 10 kts 334°
2026-04-21 08:35 18.29217 -15.95886 16 ft 21 kts 334°
2026-04-21 08:35 18.29583 -15.96110 14 ft 99 kts 329°
2026-04-21 08:35 18.30390 -15.96581 53 ft 161 kts 334°
2026-04-21 08:36 18.31425 -15.97161 846 ft 176 kts 333°
2026-04-21 08:36 18.32660 -15.97550 1529 ft 194 kts 356°
2026-04-21 08:36 18.34036 -15.97346 2012 ft 208 kts 15°
2026-04-21 08:36 18.35434 -15.96842 2519 ft 218 kts 17°
2026-04-21 08:37 18.36934 -15.96250 2753 ft 238 kts 18°
2026-04-21 08:37 18.38526 -15.95617 3170 ft 252 kts 18°
2026-04-21 08:37 18.40226 -15.94967 3595 ft 269 kts 17°
2026-04-21 08:37 18.42009 -15.94314 4157 ft 279 kts 16°
2026-04-21 08:38 18.43871 -15.93654 4852 ft 285 kts 15°
2026-04-21 08:38 18.45769 -15.93001 5583 ft 288 kts 14°
2026-04-21 08:38 18.47699 -15.92353 6298 ft 292 kts 14°
2026-04-21 08:38 18.49649 -15.91710 6991 ft 296 kts 14°
2026-04-21 08:39 18.51638 -15.91064 7649 ft 302 kts 13°
2026-04-21 08:39 18.53660 -15.90412 8343 ft 305 kts 13°
2026-04-21 08:39 18.55705 -15.89757 9030 ft 309 kts 13°
2026-04-21 08:39 18.57759 -15.89102 9717 ft 314 kts 13°
2026-04-21 08:40 18.59867 -15.88432 10270 ft 323 kts 13°
2026-04-21 08:40 18.62095 -15.87730 10441 ft 345 kts 13°
2026-04-21 08:40 18.64470 -15.86982 10599 ft 366 kts 13°
2026-04-21 08:40 18.66979 -15.86191 10750 ft 386 kts 13°
2026-04-21 08:41 18.69589 -15.85366 11111 ft 396 kts 13°
2026-04-21 08:41 18.72239 -15.84524 11682 ft 399 kts 13°
2026-04-21 08:41 18.74914 -15.83673 12282 ft 402 kts 13°
2026-04-21 08:41 18.77612 -15.82816 12860 ft 406 kts 13°
2026-04-21 08:42 18.80333 -15.81953 13435 ft 410 kts 13°
2026-04-21 08:42 18.83079 -15.81082 13961 ft 414 kts 13°
2026-04-21 08:42 18.85849 -15.80203 14509 ft 416 kts 13°
2026-04-21 08:42 18.88362 -15.79406 15014 ft 418 kts 13°
2026-04-21 08:43 18.90271 -15.78801 15389 ft 419 kts 12°
2026-04-21 08:43 18.91802 -15.78315 15680 ft 421 kts 12°
2026-04-21 08:43 18.94617 -15.77422 16203 ft 424 kts 12°
2026-04-21 08:43 18.97451 -15.76523 16717 ft 426 kts 12°
2026-04-21 08:44 19.00303 -15.75618 17224 ft 429 kts 12°
2026-04-21 08:44 19.03168 -15.74708 17719 ft 432 kts 12°
2026-04-21 08:44 19.06057 -15.73791 18209 ft 434 kts 12°
2026-04-21 08:44 19.08961 -15.72868 18645 ft 436 kts 12°
2026-04-21 08:45 19.11872 -15.71942 19094 ft 438 kts 12°
2026-04-21 08:45 19.14794 -15.71013 19547 ft 439 kts 12°
2026-04-21 08:45 19.17730 -15.70079 19988 ft 441 kts 12°
2026-04-21 08:45 19.20673 -15.69142 20428 ft 442 kts 12°
2026-04-21 08:46 19.23628 -15.68201 20859 ft 444 kts 12°
2026-04-21 08:46 19.26558 -15.67268 21275 ft 446 kts 12°
2026-04-21 08:46 19.29531 -15.66321 21695 ft 447 kts 12°
2026-04-21 08:46 19.32521 -15.65368 22107 ft 449 kts 12°
2026-04-21 08:47 19.35525 -15.64410 22506 ft 451 kts 12°
2026-04-21 08:47 19.38534 -15.63451 22898 ft 453 kts 12°
2026-04-21 08:47 19.41560 -15.62486 23293 ft 454 kts 12°
2026-04-21 08:47 19.44594 -15.61517 23640 ft 456 kts 11°
2026-04-21 08:48 19.47635 -15.60546 23959 ft 457 kts 11°
2026-04-21 08:48 19.50683 -15.59572 24283 ft 458 kts 11°
2026-04-21 08:48 19.53737 -15.58596 24589 ft 459 kts 10°
2026-04-21 08:48 19.56788 -15.57621 24882 ft 460 kts 10°
2026-04-21 08:49 19.59866 -15.56637 25175 ft 461 kts
2026-04-21 08:49 19.62944 -15.55652 25457 ft 462 kts
2026-04-21 08:49 19.65981 -15.54680 25728 ft 463 kts
2026-04-21 08:49 19.69069 -15.53691 25992 ft 464 kts
2026-04-21 08:50 19.72166 -15.52699 26255 ft 465 kts
2026-04-21 08:50 19.75275 -15.51703 26518 ft 466 kts
2026-04-21 08:50 19.78379 -15.50708 26773 ft 467 kts
2026-04-21 08:50 19.81492 -15.49710 27002 ft 468 kts
2026-04-21 08:51 19.84614 -15.48708 27223 ft 469 kts
2026-04-21 08:51 19.87738 -15.47705 27446 ft 470 kts
2026-04-21 08:51 19.90874 -15.46699 27664 ft 471 kts
2026-04-21 08:51 19.94015 -15.45689 27876 ft 472 kts
2026-04-21 08:52 19.97121 -15.44691 28065 ft 473 kts
2026-04-21 08:52 20.00279 -15.43676 28255 ft 474 kts
2026-04-21 08:52 20.03449 -15.42656 28492 ft 474 kts
2026-04-21 08:52 20.06605 -15.41638 28809 ft 472 kts
2026-04-21 08:53 20.09735 -15.40627 29147 ft 469 kts
2026-04-21 08:53 20.12850 -15.39621 29442 ft 468 kts
2026-04-21 08:53 20.15968 -15.38616 29720 ft 467 kts
2026-04-21 08:53 20.18917 -15.37666 29966 ft 466 kts
2026-04-21 08:54 20.20970 -15.37005 30123 ft 466 kts
2026-04-21 08:54 20.22687 -15.36451 30252 ft 465 kts
2026-04-21 08:54 20.25788 -15.35451 30444 ft 465 kts
2026-04-21 08:54 20.28889 -15.34452 30616 ft 466 kts
2026-04-21 08:55 20.31990 -15.33452 30813 ft 466 kts
2026-04-21 08:55 20.35097 -15.32448 31045 ft 465 kts
2026-04-21 08:55 20.38194 -15.31447 31275 ft 465 kts
2026-04-21 08:55 20.41288 -15.30446 31466 ft 465 kts
2026-04-21 08:56 20.44390 -15.29444 31653 ft 466 kts
2026-04-21 08:56 20.47494 -15.28440 31870 ft 465 kts
2026-04-21 08:56 20.50591 -15.27437 32100 ft 465 kts
2026-04-21 08:56 20.53686 -15.26434 32325 ft 465 kts
2026-04-21 08:57 20.56778 -15.25432 32551 ft 464 kts
2026-04-21 08:57 20.59872 -15.24429 32783 ft 464 kts
2026-04-21 08:57 20.62960 -15.23427 33022 ft 464 kts
2026-04-21 08:57 20.66045 -15.22426 33257 ft 463 kts
2026-04-21 08:58 20.69094 -15.21437 33489 ft 463 kts
2026-04-21 08:58 20.72172 -15.20437 33720 ft 462 kts
2026-04-21 08:58 20.75258 -15.19435 33958 ft 462 kts
2026-04-21 08:58 20.78330 -15.18436 34181 ft 461 kts
2026-04-21 08:59 20.81396 -15.17438 34401 ft 460 kts
2026-04-21 08:59 20.84453 -15.16444 34599 ft 459 kts
2026-04-21 08:59 20.87501 -15.15452 34809 ft 458 kts
2026-04-21 08:59 20.90556 -15.14458 34934 ft 458 kts
2026-04-21 09:00 20.93615 -15.13464 34936 ft 459 kts
2026-04-21 09:00 20.99720 -15.11474 34950 ft 457 kts
2026-04-21 09:01 21.05801 -15.09489 34950 ft 455 kts
2026-04-21 09:01 21.11807 -15.07528 34952 ft 454 kts
2026-04-21 09:02 21.17839 -15.05559 34956 ft 453 kts
2026-04-21 09:02 21.23868 -15.03588 34957 ft 452 kts
2026-04-21 09:03 21.32905 -15.00631 34962 ft 452 kts
2026-04-21 09:03 21.38943 -14.98775 34965 ft 449 kts 360°
2026-04-21 09:04 21.44953 -14.97038 34971 ft 450 kts 359°
2026-04-21 09:04 21.50995 -14.95288 34964 ft 450 kts 360°
2026-04-21 09:05 21.57047 -14.93516 34966 ft 451 kts 360°
2026-04-21 09:05 21.63120 -14.91726 34967 ft 452 kts 360°
2026-04-21 09:06 21.69195 -14.89932 34968 ft 453 kts 360°
2026-04-21 09:06 21.75237 -14.88146 34965 ft 453 kts 360°
2026-04-21 09:07 21.81330 -14.86344 34969 ft 454 kts 360°
2026-04-21 09:07 21.87429 -14.84539 34970 ft 455 kts 360°
2026-04-21 09:08 21.92509 -14.83034 34968 ft 455 kts
2026-04-21 09:08 21.98630 -14.81219 34969 ft 456 kts
2026-04-21 09:09 22.04762 -14.79400 34971 ft 457 kts
2026-04-21 09:09 22.10902 -14.77576 34966 ft 458 kts
2026-04-21 09:10 22.17054 -14.75747 34966 ft 458 kts
2026-04-21 09:10 22.23175 -14.73926 34971 ft 459 kts
2026-04-21 09:11 22.29340 -14.72090 34969 ft 460 kts
2026-04-21 09:11 22.35518 -14.70248 34966 ft 461 kts
2026-04-21 09:12 22.41706 -14.68402 34976 ft 461 kts
2026-04-21 09:12 22.47868 -14.66562 34976 ft 462 kts
2026-04-21 09:13 22.54073 -14.64707 34967 ft 463 kts
2026-04-21 09:13 22.60300 -14.62844 34968 ft 464 kts
2026-04-21 09:14 22.66489 -14.60991 34972 ft 465 kts
2026-04-21 09:14 22.72726 -14.59121 34969 ft 466 kts
2026-04-21 09:15 22.78984 -14.57244 34974 ft 466 kts
2026-04-21 09:15 22.85243 -14.55364 34966 ft 467 kts
2026-04-21 09:16 22.91519 -14.53476 34969 ft 467 kts
2026-04-21 09:16 22.97752 -14.51600 34964 ft 468 kts
2026-04-21 09:17 23.04039 -14.49706 34962 ft 468 kts
2026-04-21 09:17 23.10320 -14.47812 34960 ft 467 kts
2026-04-21 09:18 23.16557 -14.45930 34955 ft 467 kts
2026-04-21 09:18 23.22819 -14.44038 34965 ft 467 kts
2026-04-21 09:19 23.29079 -14.42146 34963 ft 467 kts
2026-04-21 09:19 23.35347 -14.40249 34967 ft 467 kts
2026-04-21 09:20 23.41608 -14.38353 34965 ft 467 kts
2026-04-21 09:20 23.47842 -14.36462 34962 ft 468 kts
2026-04-21 09:21 23.54118 -14.34557 34962 ft 468 kts
2026-04-21 09:21 23.60396 -14.32650 34965 ft 469 kts
2026-04-21 09:22 23.66683 -14.30738 34963 ft 469 kts
2026-04-21 09:22 23.72986 -14.28819 34971 ft 470 kts
2026-04-21 09:23 23.79293 -14.26897 34962 ft 471 kts
2026-04-21 09:23 23.85615 -14.24968 34965 ft 471 kts
2026-04-21 09:24 23.91899 -14.23049 34968 ft 472 kts
2026-04-21 09:24 23.98229 -14.21113 34965 ft 472 kts
2026-04-21 09:25 24.04568 -14.19173 34967 ft 472 kts
2026-04-21 09:25 24.10903 -14.17233 34966 ft 472 kts
2026-04-21 09:26 24.17193 -14.15304 34964 ft 472 kts
2026-04-21 09:26 24.23519 -14.13361 34966 ft 472 kts
2026-04-21 09:27 24.29855 -14.11415 34962 ft 472 kts
2026-04-21 09:27 24.36183 -14.09468 34962 ft 472 kts
2026-04-21 09:28 24.42498 -14.07524 34961 ft 471 kts
2026-04-21 09:28 24.48776 -14.05589 34966 ft 471 kts
2026-04-21 09:29 24.55098 -14.03638 34967 ft 471 kts
2026-04-21 09:29 24.61414 -14.01687 34966 ft 471 kts
2026-04-21 09:30 24.67731 -13.99734 34968 ft 471 kts
2026-04-21 09:30 24.74061 -13.97775 34967 ft 472 kts
2026-04-21 09:31 24.80377 -13.95818 34964 ft 472 kts
2026-04-21 09:31 24.86662 -13.93869 34969 ft 472 kts
2026-04-21 09:32 24.92984 -13.91906 34966 ft 472 kts
2026-04-21 09:32 24.99315 -13.89938 34969 ft 472 kts
2026-04-21 09:33 25.05648 -13.87968 34968 ft 473 kts
2026-04-21 09:33 25.11986 -13.85993 34965 ft 473 kts
2026-04-21 09:34 25.18294 -13.84026 34966 ft 474 kts
2026-04-21 09:34 25.24686 -13.82031 34958 ft 474 kts
2026-04-21 09:35 25.31039 -13.80045 34958 ft 474 kts
2026-04-21 09:35 25.37351 -13.78070 34955 ft 475 kts
2026-04-21 09:36 25.43715 -13.76077 34954 ft 475 kts
2026-04-21 09:36 25.50078 -13.74082 34952 ft 475 kts
2026-04-21 09:37 25.56438 -13.72085 34954 ft 475 kts
2026-04-21 09:37 25.62812 -13.70082 34948 ft 475 kts
2026-04-21 09:38 25.69130 -13.68094 34954 ft 475 kts
2026-04-21 09:38 25.75492 -13.66091 34952 ft 475 kts
2026-04-21 09:39 25.81864 -13.64082 34950 ft 475 kts
2026-04-21 09:39 25.88234 -13.62071 34949 ft 476 kts
2026-04-21 09:40 25.94604 -13.60058 34947 ft 476 kts
2026-04-21 09:40 26.00974 -13.58043 34944 ft 476 kts
2026-04-21 09:41 26.07300 -13.56040 34944 ft 476 kts
2026-04-21 09:41 26.13672 -13.54019 34945 ft 476 kts
2026-04-21 09:42 26.20048 -13.51996 34946 ft 476 kts
2026-04-21 09:42 26.26431 -13.49967 34940 ft 476 kts 10°
2026-04-21 09:43 26.32813 -13.47937 34939 ft 477 kts 10°
2026-04-21 09:43 26.39158 -13.45916 34941 ft 477 kts 10°
2026-04-21 09:44 26.45539 -13.43881 34939 ft 477 kts 10°
2026-04-21 09:44 26.51925 -13.41842 34938 ft 477 kts 10°
2026-04-21 09:45 26.58323 -13.39797 34938 ft 478 kts 10°
2026-04-21 09:45 26.64722 -13.37750 34936 ft 478 kts 11°
2026-04-21 09:46 26.71123 -13.35699 34934 ft 478 kts 11°
2026-04-21 09:46 26.77489 -13.33657 34934 ft 479 kts 11°
2026-04-21 09:47 26.83897 -13.31599 34938 ft 479 kts 11°
2026-04-21 09:47 26.90315 -13.29535 34935 ft 479 kts 11°
2026-04-21 09:48 26.96730 -13.27470 34939 ft 479 kts 11°
2026-04-21 09:48 27.03142 -13.25403 34939 ft 479 kts 11°
2026-04-21 09:49 27.09513 -13.23337 34938 ft 480 kts 13°
2026-04-21 09:49 27.12628 -13.21906 34935 ft 487 kts 24°
2026-04-21 09:49 27.15536 -13.19930 34948 ft 491 kts 32°
2026-04-21 09:50 27.20578 -13.14679 34950 ft 496 kts 44°
2026-04-21 09:50 27.25264 -13.08976 34934 ft 496 kts 45°
2026-04-21 09:51 27.29960 -13.03293 34929 ft 496 kts 44°
2026-04-21 09:51 27.34667 -12.97686 34927 ft 495 kts 44°
2026-04-21 09:52 27.39426 -12.92041 34917 ft 495 kts 44°
2026-04-21 09:52 27.44134 -12.86448 34921 ft 495 kts 44°
2026-04-21 09:53 27.48869 -12.80810 34915 ft 495 kts 44°
2026-04-21 09:53 27.53599 -12.75168 34915 ft 495 kts 44°
2026-04-21 09:54 27.58330 -12.69518 34918 ft 495 kts 45°
2026-04-21 09:54 27.63052 -12.63870 34915 ft 495 kts 45°
2026-04-21 09:55 27.67780 -12.58218 34920 ft 494 kts 44°
2026-04-21 09:55 27.72532 -12.52681 34917 ft 494 kts 44°
2026-04-21 09:56 27.77347 -12.47123 34921 ft 494 kts 44°
2026-04-21 09:56 27.82151 -12.41557 34924 ft 494 kts 44°
2026-04-21 09:57 27.86944 -12.35978 34912 ft 495 kts 44°
2026-04-21 09:57 27.91740 -12.30383 34919 ft 495 kts 44°
2026-04-21 09:58 27.96504 -12.24815 34916 ft 495 kts 44°
2026-04-21 09:58 28.01295 -12.19210 34914 ft 495 kts 44°
2026-04-21 09:59 28.05282 -12.14540 34918 ft 495 kts 44°
2026-04-21 09:59 28.10075 -12.08918 34913 ft 495 kts 45°
2026-04-21 10:00 28.14870 -12.03289 34918 ft 495 kts 45°
2026-04-21 10:00 28.19657 -11.97659 34914 ft 495 kts 45°
2026-04-21 10:01 28.24437 -11.92030 34913 ft 495 kts 45°
2026-04-21 10:01 28.29184 -11.86431 34915 ft 495 kts 45°
2026-04-21 10:02 28.36349 -11.77968 34913 ft 496 kts 45°
2026-04-21 10:03 28.41140 -11.72299 34909 ft 496 kts 45°
2026-04-21 10:03 28.45891 -11.66668 34907 ft 496 kts 45°
2026-04-21 10:04 28.50678 -11.60987 34908 ft 498 kts 45°
2026-04-21 10:04 28.55485 -11.55277 34914 ft 499 kts 45°
2026-04-21 10:05 28.60290 -11.49559 34908 ft 500 kts 45°
2026-04-21 10:05 28.65100 -11.43828 34907 ft 500 kts 45°
2026-04-21 10:06 28.69873 -11.38131 34904 ft 500 kts 45°
2026-04-21 10:06 28.74674 -11.32394 34918 ft 500 kts 45°
2026-04-21 10:07 28.79476 -11.26647 34923 ft 500 kts 45°
2026-04-21 10:07 28.84271 -11.20901 34926 ft 499 kts 45°
2026-04-21 10:08 28.89029 -11.15191 34938 ft 499 kts 45°
2026-04-21 10:08 28.93807 -11.09448 34936 ft 498 kts 45°
2026-04-21 10:09 28.98578 -11.03706 34943 ft 498 kts 45°
2026-04-21 10:09 29.03340 -10.97966 34940 ft 498 kts 45°
2026-04-21 10:10 29.08094 -10.92228 34938 ft 498 kts 45°
2026-04-21 10:10 29.12856 -10.86471 34938 ft 497 kts 46°
2026-04-21 10:11 29.17609 -10.80718 34939 ft 498 kts 46°
2026-04-21 10:11 29.22368 -10.74949 34937 ft 498 kts 46°
2026-04-21 10:12 29.27126 -10.69173 34935 ft 498 kts 46°
2026-04-21 10:12 29.31846 -10.63434 34938 ft 498 kts 46°
2026-04-21 10:13 29.36601 -10.57644 34930 ft 498 kts 46°
2026-04-21 10:13 29.41354 -10.51848 34936 ft 499 kts 46°
2026-04-21 10:14 29.46112 -10.46038 34931 ft 499 kts 46°
2026-04-21 10:14 29.50858 -10.40234 34928 ft 499 kts 46°
2026-04-21 10:15 29.55608 -10.34416 34925 ft 498 kts 46°
2026-04-21 10:15 29.60346 -10.28605 34937 ft 498 kts 46°
2026-04-21 10:16 29.65053 -10.22822 34932 ft 498 kts 46°
2026-04-21 10:16 29.69784 -10.17002 34933 ft 498 kts 46°
2026-04-21 10:17 29.74507 -10.11183 34941 ft 497 kts 46°
2026-04-21 10:17 29.79226 -10.05359 34939 ft 497 kts 46°
2026-04-21 10:18 29.83925 -9.99512 34926 ft 497 kts 47°
2026-04-21 10:18 29.88545 -9.93577 34935 ft 497 kts 47°
2026-04-21 10:19 29.93153 -9.87631 34928 ft 496 kts 47°
2026-04-21 10:19 29.97766 -9.81696 34920 ft 496 kts 47°
2026-04-21 10:20 30.02343 -9.75809 34917 ft 496 kts 47°
2026-04-21 10:20 30.06974 -9.69907 34906 ft 495 kts 46°
2026-04-21 10:21 30.11664 -9.64070 34909 ft 495 kts 46°
2026-04-21 10:21 30.16355 -9.58220 34904 ft 495 kts 46°
2026-04-21 10:22 30.20997 -9.52400 34908 ft 495 kts 46°
2026-04-21 10:22 30.25663 -9.46534 34912 ft 495 kts 46°
2026-04-21 10:23 30.30326 -9.40664 34914 ft 495 kts 46°
2026-04-21 10:23 30.35213 -9.35133 34922 ft 493 kts 38°
2026-04-21 10:24 30.40505 -9.30095 34907 ft 492 kts 37°
2026-04-21 10:24 30.45810 -9.25059 34903 ft 492 kts 38°
2026-04-21 10:25 30.51071 -9.19953 34901 ft 493 kts 38°
2026-04-21 10:25 30.56315 -9.14822 34893 ft 493 kts 38°
2026-04-21 10:26 30.61534 -9.09714 34898 ft 493 kts 38°
2026-04-21 10:26 30.66787 -9.04580 34913 ft 493 kts 38°
2026-04-21 10:27 30.72040 -8.99466 34913 ft 493 kts 38°
2026-04-21 10:27 30.77305 -8.94332 34917 ft 493 kts 38°
2026-04-21 10:28 30.82557 -8.89199 34907 ft 493 kts 38°
2026-04-21 10:28 30.87800 -8.84067 34907 ft 492 kts 38°
2026-04-21 10:29 30.93011 -8.78921 34913 ft 491 kts 39°
2026-04-21 10:29 30.98182 -8.73722 34913 ft 490 kts 39°
2026-04-21 10:30 31.03332 -8.68533 34908 ft 488 kts 39°
2026-04-21 10:30 31.08441 -8.63393 34907 ft 488 kts 39°
2026-04-21 10:31 31.13588 -8.58208 34906 ft 488 kts 39°
2026-04-21 10:31 31.18735 -8.53014 34898 ft 489 kts 39°
2026-04-21 10:32 31.23887 -8.47811 34893 ft 489 kts 39°
2026-04-21 10:32 31.29026 -8.42672 34897 ft 489 kts 38°
2026-04-21 10:33 31.34206 -8.37508 34886 ft 489 kts 38°
2026-04-21 10:33 31.39390 -8.32326 34882 ft 489 kts 38°
2026-04-21 10:34 31.44567 -8.27135 34893 ft 489 kts 38°
2026-04-21 10:34 31.49707 -8.21972 34877 ft 489 kts 38°
2026-04-21 10:35 31.54874 -8.16776 34885 ft 489 kts 39°
2026-04-21 10:35 31.60364 -8.12176 34873 ft 480 kts 17°
2026-04-21 10:35 31.63556 -8.11165 34886 ft 472 kts
2026-04-21 10:36 31.66802 -8.11101 34882 ft 462 kts 347°
2026-04-21 10:36 31.73117 -8.12334 34889 ft 460 kts 345°
2026-04-21 10:37 31.79434 -8.13600 34797 ft 463 kts 346°
2026-04-21 10:37 31.82640 -8.14214 34204 ft 469 kts 346°
2026-04-21 10:37 31.85869 -8.14815 33564 ft 468 kts 347°
2026-04-21 10:37 31.89096 -8.15407 32848 ft 468 kts 347°
2026-04-21 10:38 31.92314 -8.15995 32143 ft 469 kts 347°
2026-04-21 10:38 31.95541 -8.16587 31431 ft 469 kts 347°
2026-04-21 10:38 31.98722 -8.17171 30882 ft 466 kts 347°
2026-04-21 10:38 32.01909 -8.17758 30401 ft 462 kts 347°
2026-04-21 10:39 32.05073 -8.18343 29900 ft 459 kts 347°
2026-04-21 10:39 32.08215 -8.18924 29323 ft 455 kts 347°
2026-04-21 10:39 32.11346 -8.19437 28801 ft 452 kts 352°
2026-04-21 10:39 32.14478 -8.19468 28410 ft 449 kts
2026-04-21 10:40 32.17560 -8.19008 28060 ft 442 kts
2026-04-21 10:40 32.20554 -8.18489 27611 ft 438 kts
2026-04-21 10:40 32.23558 -8.17958 27109 ft 435 kts
2026-04-21 10:40 32.26543 -8.17438 26628 ft 432 kts
2026-04-21 10:41 32.29505 -8.16936 26144 ft 429 kts
2026-04-21 10:41 32.32453 -8.16446 25670 ft 426 kts
2026-04-21 10:41 32.35390 -8.15965 25197 ft 423 kts
2026-04-21 10:41 32.38301 -8.15490 24724 ft 421 kts
2026-04-21 10:42 32.41198 -8.15020 24252 ft 419 kts
2026-04-21 10:42 32.44042 -8.14557 23775 ft 417 kts
2026-04-21 10:42 32.46915 -8.14089 23254 ft 416 kts
2026-04-21 10:42 32.49775 -8.13623 22730 ft 413 kts
2026-04-21 10:43 32.52619 -8.13158 22238 ft 410 kts
2026-04-21 10:43 32.55433 -8.12698 21759 ft 407 kts
2026-04-21 10:43 32.58236 -8.12239 21285 ft 404 kts
2026-04-21 10:43 32.61011 -8.11785 20832 ft 401 kts
2026-04-21 10:44 32.63768 -8.11334 20373 ft 398 kts
2026-04-21 10:44 32.66511 -8.10884 19916 ft 396 kts
2026-04-21 10:44 32.69236 -8.10438 19465 ft 394 kts
2026-04-21 10:44 32.71946 -8.09993 19013 ft 392 kts
2026-04-21 10:45 32.74601 -8.09559 18635 ft 389 kts
2026-04-21 10:45 32.77271 -8.09125 18214 ft 387 kts
2026-04-21 10:45 32.79931 -8.08692 17721 ft 385 kts
2026-04-21 10:45 32.82585 -8.08260 17243 ft 383 kts
2026-04-21 10:46 32.85216 -8.07831 16791 ft 380 kts
2026-04-21 10:46 32.87835 -8.07403 16336 ft 378 kts
2026-04-21 10:46 32.90432 -8.06979 15898 ft 375 kts
2026-04-21 10:46 32.93018 -8.06647 15446 ft 371 kts 358°
2026-04-21 10:47 32.94700 -8.06896 15187 ft 366 kts 343°
2026-04-21 10:47 32.97905 -8.08039 14655 ft 361 kts 340°
2026-04-21 10:47 33.00291 -8.08950 14235 ft 359 kts 340°
2026-04-21 10:47 33.01899 -8.09553 13950 ft 358 kts 341°
2026-04-21 10:48 33.04280 -8.10425 13500 ft 357 kts 341°
2026-04-21 10:48 33.06653 -8.11282 13035 ft 355 kts 341°
2026-04-21 10:48 33.08986 -8.12119 12599 ft 353 kts 341°
2026-04-21 10:48 33.11334 -8.12958 12165 ft 351 kts 341°
2026-04-21 10:49 33.13668 -8.13791 11721 ft 349 kts 341°
2026-04-21 10:49 33.15991 -8.14622 11320 ft 347 kts 341°
2026-04-21 10:49 33.18297 -8.15448 10893 ft 345 kts 341°
2026-04-21 10:49 33.20587 -8.16269 10627 ft 339 kts 341°
2026-04-21 10:50 33.22813 -8.17066 10472 ft 329 kts 341°
2026-04-21 10:50 33.24979 -8.17843 10325 ft 320 kts 341°
2026-04-21 10:50 33.27084 -8.18599 10177 ft 312 kts 341°
2026-04-21 10:50 33.29141 -8.19339 10042 ft 304 kts 341°
2026-04-21 10:51 33.31137 -8.20055 9964 ft 294 kts 341°
2026-04-21 10:51 33.33038 -8.20730 9936 ft 283 kts 341°
2026-04-21 10:51 33.34886 -8.21393 9917 ft 272 kts 341°
2026-04-21 10:51 33.36686 -8.22035 9912 ft 267 kts 341°
2026-04-21 10:52 33.38461 -8.22664 9913 ft 265 kts 341°
2026-04-21 10:52 33.40260 -8.23304 9939 ft 279 kts 341°
2026-04-21 10:52 33.42187 -8.23990 9995 ft 299 kts 338°
2026-04-21 10:52 33.44313 -8.24582 9694 ft 319 kts 340°
2026-04-21 10:53 33.46468 -8.25167 9608 ft 312 kts 341°
2026-04-21 10:53 33.48555 -8.25725 9477 ft 307 kts 341°
2026-04-21 10:53 33.50626 -8.26292 9222 ft 311 kts 342°
2026-04-21 10:53 33.52752 -8.26882 8985 ft 315 kts 342°
2026-04-21 10:54 33.54887 -8.27485 8735 ft 316 kts 342°
2026-04-21 10:54 33.57018 -8.28104 8491 ft 315 kts 342°
2026-04-21 10:54 33.59152 -8.28730 8244 ft 315 kts 342°
2026-04-21 10:54 33.61281 -8.29358 8003 ft 315 kts 341°
2026-04-21 10:55 33.63412 -8.29997 7757 ft 315 kts 341°
2026-04-21 10:55 33.65546 -8.30644 7529 ft 318 kts 340°
2026-04-21 10:55 33.67701 -8.31314 7295 ft 321 kts 340°
2026-04-21 10:55 33.69883 -8.32002 7065 ft 327 kts 341°
2026-04-21 10:56 33.72106 -8.32714 6837 ft 333 kts 341°
2026-04-21 10:56 33.74355 -8.33455 6609 ft 338 kts 342°
2026-04-21 10:56 33.76644 -8.34229 6385 ft 345 kts 342°
2026-04-21 10:56 33.78969 -8.35025 6146 ft 349 kts 342°
2026-04-21 10:57 33.81273 -8.35811 5897 ft 347 kts 341°
2026-04-21 10:57 33.83572 -8.36584 5639 ft 339 kts 341°
2026-04-21 10:57 33.85829 -8.37329 5387 ft 333 kts 340°
2026-04-21 10:57 33.88045 -8.38048 5142 ft 326 kts 341°
2026-04-21 10:58 33.90215 -8.38748 4952 ft 318 kts 341°
2026-04-21 10:58 33.92312 -8.39412 4902 ft 306 kts 341°
2026-04-21 10:58 33.94328 -8.40040 4882 ft 293 kts 342°